Location: Arthez
(43.0833°N, 0.2500°W)
Time: 22:02:51
(UTC+00:00)

CZ-4C R/B - Pass Details

Date: 23 October 2021
Orbit: 403 x 482 km, 97.7° (Epoch: 06 December)

Event Time Altitude Azimuth Distance (km) Brightness Sun altitude
Rises 17:38:21 0° 26° (NNE) 2,455 6.3 -6.7°
Reaches altitude 10° 17:40:44 10° 42° (NE) 1,561 5.2 -7.1°
Maximum altitude 17:43:23 22° 95° (E) 1,013 4.1 -7.6°
Drops below altitude 10° 17:45:58 10° 148° (SSE) 1,515 5.3 -8.1°
Sets 17:48:14 0° 164° (SSE) 2,359 6.5 -8.5°
